• în România
  • Lista ţărilor
  • Pe 7 zile
  • Temperatura apei
  • Hartă satelitară
  • Meteo pe hartă
  • Widget-uri
  • user-avatar
    Intrare

    Meteo pe oră la Makarska

    Astăzi, 18 Octombrie, Miercuri

    Timp Temperatura Precipitaţii Vânt Presiune Umiditate
    00:00 +19°C° 0 mm 2 m/s 765 mmHg 50%
    01:00 +20°C° 0 mm 1 m/s 765 mmHg 48%
    02:00 +20°C° 0 mm 1 m/s 764 mmHg 47%
    03:00 +20°C° 0 mm 1 m/s 764 mmHg 45%
    04:00 +20°C° 0 mm 1 m/s 763 mmHg 44%
    05:00 +20°C° 0 mm 1 m/s 763 mmHg 44%
    06:00 +20°C° 0 mm 1 m/s 763 mmHg 45%
    07:00 +20°C° 0 mm 1 m/s 763 mmHg 45%
    08:00 +22°C° 0 mm 1 m/s 763 mmHg 43%
    09:00 +23°C° 0 mm 1 m/s 763 mmHg 41%
    10:00 +25°C° 0 mm 1 m/s 763 mmHg 38%
    11:00 +26°C° 0 mm 1 m/s 763 mmHg 39%
    12:00 +26°C° 0 mm 1 m/s 763 mmHg 40%
    13:00 +26°C° 0 mm 2 m/s 762 mmHg 41%
    14:00 +26°C° 0 mm 1 m/s 762 mmHg 44%
    15:00 +25°C° 0 mm 1 m/s 762 mmHg 48%
    16:00 +25°C° 0 mm 1 m/s 761 mmHg 52%
    17:00 +23°C° 0 mm 1 m/s 762 mmHg 55%
    18:00 +22°C° 0 mm 1 m/s 762 mmHg 58%
    19:00 +20°C° 0 mm 1 m/s 762 mmHg 61%
    20:00 +20°C° 0 mm 1 m/s 762 mmHg 62%
    21:00 +20°C° 0 mm 1 m/s 762 mmHg 62%
    22:00 +20°C° 0 mm 1 m/s 762 mmHg 63%
    23:00 +19°C° 0 mm 1 m/s 762 mmHg 63%

    Mâine, 19 Octombrie, Joi

    Timp Temperatura Precipitaţii Vânt Presiune Umiditate
    00:00 +19°C° 0 mm 1 m/s 762 mmHg 64%
    01:00 +19°C° 0 mm 1 m/s 762 mmHg 65%
    02:00 +19°C° 0 mm 1 m/s 762 mmHg 66%
    03:00 +18°C° 0 mm 1 m/s 762 mmHg 66%
    04:00 +17°C° 0 mm 2 m/s 761 mmHg 67%
    05:00 +17°C° 0 mm 2 m/s 761 mmHg 67%
    06:00 +17°C° 0 mm 2 m/s 762 mmHg 67%
    07:00 +17°C° 0 mm 2 m/s 762 mmHg 67%
    08:00 +19°C° 0 mm 2 m/s 762 mmHg 62%
    09:00 +21°C° 0 mm 2 m/s 762 mmHg 58%
    10:00 +24°C° 0 mm 2 m/s 761 mmHg 53%
    11:00 +24°C° 0 mm 2 m/s 761 mmHg 52%
    12:00 +24°C° 0 mm 2 m/s 761 mmHg 52%
    13:00 +25°C° 0 mm 3 m/s 761 mmHg 51%
    14:00 +24°C° 0 mm 2 m/s 761 mmHg 55%
    15:00 +24°C° 0 mm 2 m/s 760 mmHg 58%
    16:00 +24°C° 0 mm 2 m/s 760 mmHg 61%
    17:00 +21°C° 0 mm 2 m/s 760 mmHg 67%
    18:00 +20°C° 0 mm 2 m/s 761 mmHg 72%
    19:00 +19°C° 0 mm 2 m/s 761 mmHg 78%
    20:00 +18°C° 0 mm 2 m/s 761 mmHg 78%
    21:00 +18°C° 0 mm 2 m/s 761 mmHg 79%
    22:00 +18°C° 0 mm 2 m/s 761 mmHg 80%
    23:00 +18°C° 0 mm 2 m/s 761 mmHg 78%

    Poimâine, 20 Octombrie, Vineri

    Timp Temperatura Precipitaţii Vânt Presiune Umiditate
    00:00 +17°C° 0 mm 3 m/s 761 mmHg 77%
    01:00 +17°C° 0 mm 3 m/s 761 mmHg 76%
    02:00 +17°C° 0 mm 3 m/s 761 mmHg 74%
    03:00 +17°C° 0 mm 3 m/s 761 mmHg 73%
    04:00 +17°C° 0 mm 3 m/s 761 mmHg 71%
    05:00 +17°C° 0 mm 3 m/s 761 mmHg 70%
    06:00 +17°C° 0 mm 3 m/s 761 mmHg 69%
    07:00 +17°C° 0 mm 3 m/s 761 mmHg 68%
    08:00 +19°C° 0 mm 3 m/s 761 mmHg 64%
    09:00 +20°C° 0 mm 3 m/s 762 mmHg 61%
    10:00 +22°C° 0 mm 3 m/s 762 mmHg 57%
    11:00 +22°C° 0 mm 3 m/s 761 mmHg 57%
    12:00 +24°C° 0 mm 3 m/s 761 mmHg 57%
    13:00 +24°C° 0 mm 3 m/s 761 mmHg 57%
    14:00 +24°C° 0 mm 3 m/s 761 mmHg 60%
    15:00 +22°C° 0 mm 3 m/s 761 mmHg 64%
    16:00 +23°C° 0 mm 2 m/s 761 mmHg 67%
    17:00 +21°C° 0 mm 2 m/s 762 mmHg 73%
    18:00 +20°C° 0 mm 1 m/s 762 mmHg 79%
    19:00 +19°C° 0 mm 1 m/s 762 mmHg 85%
    20:00 +19°C° 0 mm 1 m/s 763 mmHg 85%
    21:00 +19°C° 0 mm 1 m/s 763 mmHg 85%
    22:00 +18°C° 0 mm 1 m/s 763 mmHg 86%
    23:00 +18°C° 0 mm 1 m/s 763 mmHg 86%

    21 Octombrie, Sâmbătă

    Timp Temperatura Precipitaţii Vânt Presiune Umiditate
    00:00 +18°C° 0 mm 1 m/s 763 mmHg 85%
    01:00 +18°C° 0 mm 1 m/s 763 mmHg 85%
    02:00 +16°C° 0 mm 1 m/s 763 mmHg 85%
    03:00 +16°C° 0 mm 1 m/s 763 mmHg 85%
    04:00 +16°C° 0 mm 1 m/s 763 mmHg 84%
    05:00 +16°C° 0 mm 1 m/s 763 mmHg 83%
    06:00 +16°C° 0 mm 1 m/s 763 mmHg 81%
    07:00 +16°C° 0 mm 1 m/s 763 mmHg 79%
    08:00 +19°C° 0 mm 1 m/s 763 mmHg 73%
    09:00 +21°C° 0 mm 1 m/s 763 mmHg 66%
    10:00 +20°C° 0 mm 0 m/s 763 mmHg 59%
    11:00 +23°C° 0 mm 1 m/s 763 mmHg 58%
    12:00 +23°C° 0 mm 2 m/s 763 mmHg 57%
    13:00 +24°C° 0 mm 2 m/s 762 mmHg 56%
    14:00 +23°C° 0 mm 2 m/s 762 mmHg 59%
    15:00 +23°C° 0 mm 2 m/s 762 mmHg 62%
    16:00 +23°C° 0 mm 2 m/s 762 mmHg 66%
    17:00 +20°C° 0 mm 2 m/s 762 mmHg 71%
    18:00 +19°C° 0 mm 2 m/s 763 mmHg 77%
    19:00 +18°C° 0 mm 2 m/s 763 mmHg 83%
    20:00 +19°C° 0 mm 1 m/s 763 mmHg 82%
    21:00 +18°C° 0 mm 1 m/s 763 mmHg 82%
    22:00 +18°C° 0 mm 1 m/s 763 mmHg 82%
    23:00 +18°C° 0 mm 1 m/s 763 mmHg 81%

    22 Octombrie, Duminică

    Timp Temperatura Precipitaţii Vânt Presiune Umiditate
    00:00 +18°C° 0 mm 1 m/s 762 mmHg 81%
    01:00 +18°C° 0 mm 1 m/s 762 mmHg 80%
    02:00 +16°C° 0 mm 1 m/s 762 mmHg 80%
    03:00 +16°C° 0 mm 1 m/s 762 mmHg 79%
    04:00 +16°C° 0 mm 1 m/s 762 mmHg 78%
    05:00 +16°C° 0 mm 1 m/s 761 mmHg 77%
    06:00 +16°C° 0 mm 1 m/s 761 mmHg 75%
    07:00 +18°C° 0 mm 1 m/s 761 mmHg 74%
    08:00 +18°C° 0 mm 2 m/s 761 mmHg 69%
    09:00 +20°C° 0 mm 2 m/s 761 mmHg 64%
    10:00 +21°C° 0 mm 2 m/s 761 mmHg 59%
    11:00 +22°C° 0 mm 3 m/s 760 mmHg 59%
    12:00 +22°C° 0 mm 3 m/s 760 mmHg 59%
    13:00 +22°C° 0 mm 3 m/s 759 mmHg 59%
    14:00 +22°C° 0 mm 4 m/s 759 mmHg 63%
    15:00 +21°C° 0 mm 4 m/s 758 mmHg 67%
    16:00 +21°C° 0 mm 4 m/s 758 mmHg 70%
    17:00 +20°C° 0,2 mm 4 m/s 758 mmHg 74%
    18:00 +19°C° 0,2 mm 4 m/s 757 mmHg 78%
    19:00 +19°C° 0,2 mm 4 m/s 757 mmHg 82%
    20:00 +18°C° 2,4 mm 4 m/s 757 mmHg 85%
    21:00 +18°C° 2,4 mm 4 m/s 757 mmHg 87%
    22:00 +17°C° 2,4 mm 5 m/s 757 mmHg 90%
    23:00 +16°C° 5,1 mm 5 m/s 756 mmHg 90%

    23 Octombrie, Luni

    Timp Temperatura Precipitaţii Vânt Presiune Umiditate
    00:00 +16°C° 5,1 mm 6 m/s 756 mmHg 90%
    01:00 +16°C° 5,1 mm 6 m/s 756 mmHg 89%
    02:00 +15°C° 4,4 mm 6 m/s 756 mmHg 88%
    03:00 +15°C° 4,4 mm 7 m/s 756 mmHg 86%
    04:00 +14°C° 4,4 mm 7 m/s 756 mmHg 84%
    05:00 +14°C° 1,7 mm 7 m/s 756 mmHg 82%
    06:00 +13°C° 1,7 mm 8 m/s 756 mmHg 79%
    07:00 +13°C° 1,7 mm 8 m/s 757 mmHg 77%
    08:00 +13°C° 0,5 mm 8 m/s 757 mmHg 76%
    09:00 +13°C° 0,5 mm 8 m/s 758 mmHg 75%
    10:00 +13°C° 0,5 mm 9 m/s 758 mmHg 74%
    11:00 +13°C° 0 mm 8 m/s 759 mmHg 72%
    12:00 +15°C° 0 mm 8 m/s 759 mmHg 71%
    13:00 +15°C° 0 mm 8 m/s 759 mmHg 70%
    14:00 +15°C° 0 mm 7 m/s 760 mmHg 70%
    15:00 +15°C° 0 mm 7 m/s 760 mmHg 70%
    16:00 +15°C° 0 mm 7 m/s 761 mmHg 70%
    17:00 +14°C° 0 mm 6 m/s 761 mmHg 69%
    18:00 +14°C° 0 mm 6 m/s 761 mmHg 69%
    19:00 +14°C° 0 mm 6 m/s 762 mmHg 69%
    20:00 +14°C° 0 mm 6 m/s 762 mmHg 69%
    21:00 +14°C° 0 mm 6 m/s 763 mmHg 69%
    22:00 +14°C° 0 mm 5 m/s 763 mmHg 70%
    23:00 +14°C° 0 mm 6 m/s 763 mmHg 70%
    Arată mai mult